WGS F9 (USA 275)

Last updated on Sun Jul 06 2025 00:02:45 GMT+0000 (Coordinated Universal Time)

1 42075U 17016A 25186.07614104 -.00000082 00000+0 00000+0 0 9997 2 42075 0.0094 28.9383 0000570 127.1328 142.6329 1.00269396 30413
UTC large
Height (km)
Speed (km/s)
/
Latitude / Longitude
Inclination (degrees)
Orbital Period (minutes)
Azimuth
Elevation
Range (km)
Doppler Factor

Next 0 passes for location: London (51.5072 / 0.1276)

Sorry there are no passes over London.